User: anonymous   Login
Location: Oshawa
(43.9000°N, 78.8670°W)
Time: 19:35:52
(UTC-05:00)
Language:

Cosmos 1953 Rocket - Orbit

View from above orbital plane
View from above orbital plane
View from above satellite
View from above satellite

Ground track
Ground track

The orbit data is extracted from the following two-line orbital elements,

1 19211U 88050B   17345.53855840  .00000080  00000-0  68812-5 0  9991
2 19211  82.5273  36.5551 0020398 251.7336 221.3532 14.82989546593075
Epoch (UTC): 11 December 2017 12:55:31
Eccentricity: 0.0020398
inclination: 82.5273°
perigee height: 605 km
apogee height: 634 km
right ascension of ascending node: 36.5551°
argument of perigee: 251.7336°
revolutions per day: 14.82989546
mean anomaly at epoch: 221.3532°
orbit number at epoch: 59307

The dashed part of the orbit path shows where the satellite is in the earth's shadow,  

DLR